Weather History for Georgetown, DE

Change the Weather History Date:

Tuesday, February 5, 2013

  Actual Average Record
Temperature  
Mean Temperature 41 °F 36 °F  
Max Temperature 49 °F 45 °F 69 °F (1962)
Min Temperature 32 °F 27 °F -3 °F (1996)
Degree Days  
Heating Degree Days 24 29  
Month to date heating degree days 169 145  
Since 1 July heating degree days 2387 2655  
Cooling Degree Days 0 0  
Month to date cooling degree days 0 0  
Year to date cooling degree days 0 0  
Moisture  
Dew Point 29 °F    
Average Humidity 68    
Maximum Humidity 89    
Minimum Humidity 46    
Precipitation  
Precipitation T in 0.10 in 1.29 in (2001)
Month to date precipitation 0.07 0.50  
Year to date precipitation 2.87 3.42  
Sea Level Pressure  
Sea Level Pressure 29.90 in    
Wind  
Wind Speed 4 mph (South)    
Max Wind Speed 13 mph    
Max Gust Speed 15 mph    
Visibility 9 miles    
Events      
T = Trace of Precipitation, MM = Missing Value Source: NWS Daily Summary

Daily Weather History Graph

Daily Weather History Graph

Search for Another Location

Airport:

Trip Planner

Search our weather history database for the weather conditions in past years. The results will help you decide how hot, cold, wet, or windy it might be!

Date:

Astronomy

Feb. 05, 2013 Rise Set
Actual Time 7:03 AM EST 5:28 PM EST
Civil Twilight 6:35 AM EST 5:55 PM EST
Nautical Twilight 6:03 AM EST 6:27 PM EST
Astronomical Twilight 5:32 AM EST 6:58 PM EST
Moon 2:41 AM EST (2/5) 12:44 PM EST (2/5)
Length of Visible Light 11h 20m
Length of Day
10h 24m
Waning Crescent, 27% of the Moon is Illuminated
Feb 5
Waning Crescent
Feb 10
New
Feb 17
First Quarter
Feb 25
Full
Mar 4
Last Quarter

Hourly Weather History & Observations

Time (EST) Temp. Windchill Dew Point Humidity Pressure Visibility Wind Dir Wind Speed Gust Speed Precip Events Conditions
12:54 AM 36.0 °F 33.3 °F 25.0 °F 64% 29.92 in 10.0 mi South 3.5 mph - N/A   Overcast
1:54 AM 37.9 °F 30.9 °F 26.1 °F 62% 29.92 in 10.0 mi SSW 10.4 mph - N/A   Overcast
2:54 AM 39.9 °F 36.7 °F 27.0 °F 60% 29.90 in 10.0 mi SW 4.6 mph - N/A   Overcast
3:54 AM 37.9 °F 35.5 °F 27.0 °F 65% 29.89 in 10.0 mi South 3.5 mph - N/A   Mostly Cloudy
4:54 AM 34.0 °F 31.0 °F 26.1 °F 73% 29.89 in 10.0 mi SSE 3.5 mph - N/A   Mostly Cloudy
5:54 AM 36.0 °F 33.3 °F 27.0 °F 70% 29.90 in 10.0 mi SSW 3.5 mph - N/A   Clear
6:54 AM 33.1 °F 30.0 °F 27.0 °F 78% 29.90 in 10.0 mi South 3.5 mph - N/A   Clear
7:54 AM 34.0 °F 31.0 °F 28.0 °F 79% 29.92 in 10.0 mi South 3.5 mph - 0.00 in   Clear
9:54 AM 43.0 °F 38.2 °F 28.9 °F 58% 29.93 in 10.0 mi SW 8.1 mph - N/A   Clear
10:54 AM 46.9 °F - 28.0 °F 48% 29.93 in 10.0 mi WSW 3.5 mph - N/A   Partly Cloudy
11:54 AM 48.0 °F - 28.9 °F 48% 29.91 in 10.0 mi West 3.5 mph - N/A   Clear
12:54 PM 48.9 °F - 28.9 °F 46% 29.89 in 10.0 mi NNE 6.9 mph - N/A   Clear
1:54 PM 45.0 °F 42.6 °F 30.0 °F 56% 29.87 in 10.0 mi NE 4.6 mph - N/A   Scattered Clouds
2:54 PM 44.1 °F 39.5 °F 28.9 °F 55% 29.87 in 10.0 mi NE 8.1 mph - N/A   Overcast
3:54 PM 42.1 °F 37.1 °F 26.1 °F 53% 29.88 in 10.0 mi NE 8.1 mph - N/A   Mostly Cloudy
4:54 PM 39.0 °F 35.7 °F 32.0 °F 76% 29.89 in 10.0 mi ENE 4.6 mph - N/A   Clear
5:54 PM 37.9 °F 34.4 °F 32.0 °F 79% 29.89 in 10.0 mi East 4.6 mph - N/A   Clear
6:54 PM 37.9 °F - 32.0 °F 79% 29.90 in 10.0 mi Calm Calm - N/A   Mostly Cloudy
7:54 PM 37.0 °F - 32.0 °F 82% 29.90 in 9.0 mi Calm Calm - N/A   Clear
8:54 PM 34.0 °F - 30.9 °F 89% 29.91 in 6.0 mi Calm Calm - N/A   Clear
9:54 PM 33.1 °F - 30.9 °F 92% 29.91 in 6.0 mi Calm Calm - N/A   Overcast
10:54 PM 33.1 °F - 30.0 °F 89% 29.91 in 5.0 mi Calm Calm - N/A   Mostly Cloudy
11:54 PM 33.1 °F - 30.0 °F 89% 29.92 in 5.0 mi Calm Calm - N/A   Mostly Cloudy